�������l�o���
Date,Time,MP-1(��Sv/h),MP-2(��Sv/h),MP-3(��Sv/h),MP-4(��Sv/h),MP-5(��Sv/h),MP-6(��Sv/h),MP-7(��Sv/h),MP-8(��Sv/h),����,����(m/s),���J
2017/12/19,00:00,0.900,1.497,0.939,1.771,1.198,0.496,0.881,0.846,�쐼,7.6,��
2017/12/19,00:10,0.900,1.496,0.939,1.774,1.200,0.497,0.880,0.847,�쐼,6.6,��
2017/12/19,00:20,0.902,1.495,0.940,1.771,1.202,0.495,0.881,0.846,���쐼,6.0,��
2017/12/19,00:30,0.902,1.494,0.940,1.770,1.200,0.496,0.881,0.845,��,4.8,��
2017/12/19,00:40,0.901,1.495,0.940,1.772,1.198,0.494,0.881,0.847,�쐼,3.7,��
2017/12/19,00:50,0.900,1.496,0.941,1.771,1.201,0.497,0.881,0.846,��쐼,4.1,��
2017/12/19,01:00,0.900,1.494,0.939,1.771,1.201,0.495,0.882,0.845,��쐼,3.1,��
2017/12/19,01:10,0.900,1.494,0.938,1.769,1.199,0.497,0.882,0.846,��쐼,2.9,��
2017/12/19,01:20,0.901,1.495,0.941,1.770,1.198,0.494,0.881,0.846,�쐼,1.5,��
2017/12/19,01:30,0.902,1.494,0.939,1.769,1.200,0.496,0.882,0.846,�쐼,0.6,��
2017/12/19,01:40,0.901,1.493,0.940,1.769,1.197,0.496,0.880,0.846,��,0.9,��
2017/12/19,01:50,0.903,1.495,0.941,1.771,1.197,0.496,0.881,0.847,���k��,2.3,��
2017/12/19,02:00,0.901,1.496,0.941,1.770,1.196,0.495,0.881,0.847,�k��,2.8,��
2017/12/19,02:10,0.901,1.497,0.941,1.772,1.199,0.495,0.883,0.846,���k��,2.2,��
2017/12/19,02:20,0.902,1.497,0.939,1.772,1.200,0.496,0.882,0.846,�k��,3.9,��
2017/12/19,02:30,0.903,1.495,0.942,1.774,1.200,0.494,0.881,0.847,��,8.3,��
2017/12/19,02:40,0.904,1.495,0.940,1.774,1.200,0.494,0.880,0.846,��,5.2,��
2017/12/19,02:50,0.903,1.491,0.941,1.772,1.198,0.495,0.881,0.846,���k��,3.1,��
2017/12/19,03:00,0.902,1.495,0.940,1.774,1.197,0.496,0.882,0.847,��,2.0,��
2017/12/19,03:10,0.903,1.495,0.940,1.773,1.200,0.494,0.882,0.847,��쐼,1.7,��
2017/12/19,03:20,0.904,1.498,0.940,1.774,1.199,0.496,0.879,0.848,�쐼,1.2,��
2017/12/19,03:30,0.902,1.492,0.940,1.771,1.196,0.496,0.880,0.847,��,3.2,��
2017/12/19,03:40,0.900,1.495,0.940,1.774,1.197,0.496,0.881,0.846,��,6.0,��
2017/12/19,03:50,0.901,1.495,0.941,1.772,1.200,0.496,0.884,0.848,���k��,7.4,��
2017/12/19,04:00,0.902,1.494,0.941,1.774,1.196,0.496,0.882,0.846,���k��,7.4,��
2017/12/19,04:10,0.902,1.496,0.940,1.772,1.197,0.496,0.882,0.847,��,2.3,��
2017/12/19,04:20,0.902,1.495,0.941,1.774,1.196,0.495,0.881,0.847,��쐼,1.4,��
2017/12/19,04:30,0.903,1.495,0.941,1.770,1.198,0.495,0.882,0.846,�k�k��,1.1,��
2017/12/19,04:40,0.901,1.496,0.941,1.772,1.196,0.495,0.881,0.846,��,0.9,��
2017/12/19,04:50,0.903,1.496,0.939,1.771,1.196,0.494,0.882,0.846,-,CALM,��
2017/12/19,05:00,0.900,1.494,0.939,1.772,1.201,0.494,0.881,0.847,-,CALM,��
2017/12/19,05:10,0.898,1.494,0.939,1.771,1.195,0.496,0.882,0.846,���쓌,1.1,��
2017/12/19,05:20,0.901,1.494,0.939,1.771,1.197,0.495,0.881,0.846,�k�k��,1.4,��
2017/12/19,05:30,0.900,1.494,0.939,1.772,1.198,0.493,0.880,0.847,�k�k��,2.0,��
2017/12/19,05:40,0.902,1.495,0.937,1.767,1.197,0.495,0.880,0.846,�k��,2.5,��
2017/12/19,05:50,0.901,1.494,0.937,1.771,1.197,0.494,0.882,0.847,���k��,2.3,��
2017/12/19,06:00,0.903,1.495,0.939,1.773,1.197,0.494,0.881,0.844,�k��,4.8,��
2017/12/19,06:10,0.901,1.495,0.939,1.775,1.195,0.494,0.880,0.846,���k��,3.2,��
2017/12/19,06:20,0.901,1.493,0.939,1.772,1.197,0.495,0.881,0.846,���k��,4.3,��
2017/12/19,06:30,0.902,1.493,0.939,1.768,1.197,0.494,0.882,0.845,���k��,4.5,��
2017/12/19,06:40,0.899,1.493,0.938,1.771,1.195,0.495,0.881,0.846,���k��,3.8,��
2017/12/19,06:50,0.901,1.494,0.938,1.768,1.198,0.495,0.881,0.847,�k��,3.1,��
2017/12/19,07:00,0.901,1.492,0.940,1.773,1.198,0.494,0.881,0.846,-,CALM,��
2017/12/19,07:10,0.901,1.493,0.940,1.772,1.196,0.493,0.880,0.847,�k,1.1,��
2017/12/19,07:20,0.900,1.495,0.939,1.773,1.196,0.494,0.881,0.846,��쓌,0.9,��
2017/12/19,07:30,0.901,1.493,0.938,1.773,1.198,0.495,0.880,0.845,��,1.4,��
2017/12/19,07:40,0.902,1.495,0.940,1.772,1.197,0.497,0.881,0.846,�k��,1.2,��
2017/12/19,07:50,0.902,1.497,0.938,1.772,1.197,0.494,0.881,0.846,���쓌,1.2,��
2017/12/19,08:00,0.900,1.495,0.940,1.773,1.198,0.495,0.882,0.848,�k�k��,0.6,��
2017/12/19,08:10,0.900,1.497,0.938,1.776,1.197,0.494,0.881,0.845,��,0.9,��
2017/12/19,08:20,0.902,1.495,0.940,1.773,1.198,0.495,0.882,0.848,��,1.2,��
2017/12/19,08:30,0.901,1.492,0.939,1.770,1.195,0.495,0.882,0.846,��,1.1,��
2017/12/19,08:40,0.904,1.496,0.938,1.772,1.197,0.495,0.883,0.847,��쐼,1.5,��
2017/12/19,08:50,0.903,1.495,0.940,1.774,1.197,0.496,0.883,0.848,��,2.6,��
2017/12/19,09:00,0.902,1.495,0.939,1.775,1.199,0.496,0.882,0.848,��,3.3,��
2017/12/19,09:10,0.902,1.497,0.937,1.771,1.200,0.495,0.885,0.847,��,3.5,��
2017/12/19,09:20,0.901,1.495,0.942,1.775,1.196,0.496,0.885,0.848,��,2.0,��
2017/12/19,09:30,0.904,1.495,0.941,1.775,1.199,0.496,0.883,0.848,��,2.3,��
2017/12/19,09:40,0.905,1.491,0.941,1.774,1.198,0.497,0.884,0.850,��,2.2,��
2017/12/19,09:50,0.904,1.492,0.940,1.772,1.199,0.498,0.882,0.848,��,1.5,��
2017/12/19,10:00,0.905,1.493,0.941,1.776,1.201,0.498,0.883,0.847,��쐼,1.4,��
2017/12/19,10:10,0.905,1.491,0.941,1.775,1.201,0.497,0.883,0.851,��,0.8,��
2017/12/19,10:20,0.909,1.494,0.941,1.777,1.202,0.498,0.883,0.849,��쐼,3.0,��
2017/12/19,10:30,0.905,1.494,0.941,1.776,1.203,0.499,0.882,0.849,��,3.4,��
2017/12/19,10:40,0.907,1.494,0.942,1.777,1.202,0.497,0.881,0.849,��쓌,6.3,��
2017/12/19,10:50,0.906,1.496,0.944,1.777,1.203,0.499,0.881,0.849,��쓌,7.2,��
2017/12/19,11:00,0.907,1.492,0.942,1.780,1.203,0.497,0.883,0.850,��,5.1,��
2017/12/19,11:10,0.906,1.492,0.941,1.778,1.204,0.496,0.886,0.850,��,5.5,��
2017/12/19,11:20,0.906,1.492,0.942,1.776,1.201,0.499,0.882,0.850,��,3.5,��
2017/12/19,11:30,0.905,1.493,0.944,1.779,1.204,0.498,0.884,0.849,��쐼,7.2,��
2017/12/19,11:40,0.909,1.495,0.945,1.779,1.202,0.496,0.881,0.849,�쐼,7.7,��
2017/12/19,11:50,0.907,1.497,0.945,1.777,1.205,0.499,0.883,0.848,�쐼,8.3,��
2017/12/19,12:00,0.908,1.496,0.945,1.778,1.203,0.494,0.883,0.849,�쐼,8.6,��
2017/12/19,12:10,0.905,1.496,0.944,1.781,1.205,0.497,0.883,0.848,�쐼,6.9,��
2017/12/19,12:20,0.906,1.501,0.947,1.784,1.208,0.499,0.883,0.849,���쐼,8.1,��
2017/12/19,12:30,0.909,1.495,0.948,1.782,1.205,0.499,0.881,0.850,�쐼,6.0,��
2017/12/19,12:40,0.908,1.495,0.947,1.778,1.205,0.499,0.885,0.850,���쐼,7.1,��
2017/12/19,12:50,0.906,1.497,0.946,1.782,1.208,0.502,0.881,0.849,���쐼,11.6,��
2017/12/19,13:00,0.907,1.496,0.945,1.783,1.205,0.500,0.883,0.846,���쐼,12.1,��
2017/12/19,13:10,0.908,1.490,0.946,1.782,1.202,0.500,0.883,0.848,�쐼,9.0,��
2017/12/19,13:20,0.908,1.493,0.944,1.779,1.204,0.501,0.884,0.848,��,8.7,��
2017/12/19,13:30,0.910,1.491,0.946,1.780,1.203,0.499,0.883,0.847,��,7.9,��
2017/12/19,13:40,0.909,1.491,0.946,1.782,1.205,0.499,0.883,0.846,���쐼,10.6,��
2017/12/19,13:50,0.909,1.490,0.946,1.780,1.205,0.497,0.882,0.848,��,9.7,��
2017/12/19,14:00,0.907,1.490,0.947,1.778,1.204,0.501,0.882,0.846,��,11.6,�L
2017/12/19,14:10,0.908,1.493,0.945,1.782,1.206,0.499,0.883,0.848,���쐼,11.0,��
2017/12/19,14:20,0.909,1.490,0.945,1.783,1.208,0.500,0.880,0.848,���쐼,9.8,��
2017/12/19,14:30,0.907,1.494,0.945,1.782,1.205,0.500,0.882,0.847,��,9.0,��
2017/12/19,14:40,0.907,1.501,0.945,1.782,1.204,0.498,0.881,0.848,���쐼,9.5,��
2017/12/19,14:50,0.907,1.505,0.943,1.781,1.208,0.499,0.883,0.849,��,10.7,��
2017/12/19,15:00,0.905,1.505,0.944,1.781,1.204,0.498,0.882,0.849,���쐼,9.6,��
2017/12/19,15:10,0.906,1.506,0.944,1.780,1.203,0.499,0.882,0.847,��,9.7,��
2017/12/19,15:20,0.907,1.495,0.941,1.779,1.206,0.500,0.884,0.849,��,11.4,��
2017/12/19,15:30,0.907,1.503,0.944,1.779,1.203,0.497,0.883,0.847,��,9.0,��
2017/12/19,15:40,0.906,1.502,0.943,1.782,1.201,0.498,0.884,0.848,��,7.8,��
2017/12/19,15:50,0.907,1.504,0.942,1.781,1.203,0.499,0.884,0.848,���k��,8.9,��
2017/12/19,16:00,0.906,1.506,0.943,1.781,1.204,0.499,0.881,0.849,���k��,11.0,��
2017/12/19,16:10,0.905,1.503,0.941,1.781,1.203,0.497,0.883,0.847,���k��,10.3,�L
2017/12/19,16:20,0.902,1.503,0.942,1.781,1.204,0.496,0.884,0.847,�k��,9.9,�L
2017/12/19,16:30,0.904,1.506,0.943,1.781,1.206,0.496,0.884,0.847,�k��,11.0,�L
2017/12/19,16:40,0.906,1.503,0.942,1.780,1.203,0.497,0.883,0.849,���k��,9.7,�L
2017/12/19,16:50,0.905,1.506,0.944,1.781,1.202,0.498,0.882,0.846,�k��,11.3,�L
2017/12/19,17:00,0.902,1.501,0.942,1.779,1.205,0.498,0.882,0.848,���k��,10.4,�L
2017/12/19,17:10,0.903,1.504,0.943,1.781,1.206,0.497,0.885,0.847,���k��,7.7,�L
2017/12/19,17:20,0.903,1.504,0.945,1.779,1.203,0.498,0.883,0.847,���k��,7.5,��
2017/12/19,17:30,0.902,1.503,0.943,1.780,1.205,0.498,0.884,0.848,�k��,7.5,��
2017/12/19,17:40,0.903,1.507,0.942,1.781,1.205,0.497,0.882,0.849,�k��,9.1,��
2017/12/19,17:50,0.903,1.507,0.942,1.777,1.204,0.496,0.882,0.846,�k��,8.0,��
2017/12/19,18:00,0.903,1.503,0.942,1.779,1.205,0.497,0.880,0.848,�k��,7.9,��
2017/12/19,18:10,0.901,1.504,0.941,1.776,1.203,0.497,0.882,0.849,�k��,5.3,��
2017/12/19,18:20,0.904,1.503,0.941,1.778,1.203,0.496,0.882,0.847,�k��,4.3,��
2017/12/19,18:30,0.902,1.506,0.944,1.776,1.203,0.496,0.884,0.848,�k�k��,5.1,��
2017/12/19,18:40,0.902,1.501,0.940,1.775,1.205,0.496,0.882,0.848,�k�k��,4.5,��
2017/12/19,18:50,0.900,1.502,0.940,1.780,1.204,0.494,0.878,0.846,�k�k��,5.2,��
2017/12/19,19:00,0.901,1.501,0.940,1.776,1.203,0.495,0.881,0.846,�k�k��,5.4,��
2017/12/19,19:10,0.901,1.500,0.940,1.775,1.202,0.494,0.882,0.847,�k�k��,6.1,��
2017/12/19,19:20,0.902,1.502,0.939,1.778,1.197,0.496,0.881,0.847,�k,5.9,��
2017/12/19,19:30,0.902,1.505,0.939,1.778,1.203,0.494,0.882,0.848,�k,4.4,��
2017/12/19,19:40,0.900,1.502,0.941,1.775,1.203,0.495,0.881,0.845,�k�k��,4.8,��
2017/12/19,19:50,0.902,1.503,0.940,1.777,1.202,0.496,0.881,0.845,�k�k��,3.8,��
2017/12/19,20:00,0.902,1.502,0.940,1.778,1.203,0.495,0.880,0.846,�k��,3.7,��
2017/12/19,20:10,0.902,1.503,0.937,1.775,1.201,0.496,0.882,0.845,�k��,4.5,��
2017/12/19,20:20,0.901,1.504,0.940,1.774,1.201,0.496,0.882,0.848,�k��,5.9,��
2017/12/19,20:30,0.901,1.503,0.938,1.776,1.203,0.495,0.881,0.844,�k��,4.4,��
2017/12/19,20:40,0.902,1.504,0.939,1.773,1.201,0.495,0.881,0.846,�k��,4.9,��
2017/12/19,20:50,0.901,1.502,0.940,1.776,1.201,0.496,0.881,0.847,�k��,5.4,��
2017/12/19,21:00,0.899,1.501,0.937,1.773,1.201,0.495,0.881,0.847,�k��,6.5,��
2017/12/19,21:10,0.900,1.501,0.939,1.775,1.203,0.494,0.881,0.847,�k��,7.3,��
2017/12/19,21:20,0.901,1.503,0.938,1.777,1.201,0.493,0.881,0.846,�k��,5.6,��
2017/12/19,21:30,0.899,1.501,0.937,1.774,1.202,0.495,0.881,0.845,�k��,5.1,��
2017/12/19,21:40,0.898,1.500,0.939,1.775,1.201,0.494,0.878,0.847,�k��,4.0,��
2017/12/19,21:50,0.900,1.501,0.938,1.771,1.199,0.493,0.881,0.846,�k��,3.7,��
2017/12/19,22:00,0.899,1.500,0.938,1.774,1.200,0.494,0.880,0.845,���k��,2.6,��
2017/12/19,22:10,0.898,1.503,0.936,1.774,1.202,0.494,0.878,0.845,��,1.5,��
2017/12/19,22:20,0.900,1.500,0.938,1.773,1.202,0.493,0.880,0.844,���쐼,1.1,��
2017/12/19,22:30,0.898,1.500,0.938,1.776,1.200,0.492,0.877,0.845,���쐼,1.2,��
2017/12/19,22:40,0.898,1.499,0.937,1.773,1.200,0.493,0.879,0.844,���쐼,0.8,��
2017/12/19,22:50,0.898,1.502,0.938,1.773,1.199,0.494,0.879,0.843,���k��,0.8,��
2017/12/19,23:00,0.898,1.501,0.939,1.773,1.201,0.495,0.880,0.845,�k�k��,0.6,��
2017/12/19,23:10,0.899,1.500,0.938,1.772,1.200,0.495,0.878,0.844,�k,1.7,��
2017/12/19,23:20,0.899,1.499,0.937,1.775,1.202,0.494,0.878,0.844,�k,2.6,��
2017/12/19,23:30,0.901,1.499,0.936,1.773,1.201,0.494,0.878,0.846,�k�k��,3.0,��
2017/12/19,23:40,0.900,1.502,0.937,1.772,1.202,0.493,0.878,0.845,�k�k��,2.0,��
2017/12/19,23:50,0.900,1.500,0.938,1.776,1.200,0.493,0.878,0.845,�k,2.9,��
